[[{"header":{"parameterUnit":"m.s-1","parameterCategory":1,"la1":30.2991,"la2":30.254,"lo1":-89.0895,"lo2":-89.0444,"dy":0.0017,"dx":0.0017,"nx":28,"ny":28,"refTime":"2025-04-11T03:00:00:Z","depth":0,"parameterNumber":2,"parameterNumberName":"U-component_of_WINDS"},"data":[0,0,0,0,0,0,0,0,0,0,0,0,0,0,0,0,0,0,0,0,0,0,0,0,0,0,0,0,0,0,0,0,0,0,0,0,0,0,0,0,0,0,0,0,0,0,0,0,0,0,0,0,0,0,0,0,0,0,1.5817,1.5818,0,1.59,1.5901,1.5902,1.594,1.594,1.594,1.594,1.6027,1.6029,1.6032,0,0,0,0,0,0,0,0,0,0,0,0,0,1.5693,1.5695,1.5817,1.5818,1.5819,1.59,1.5901,1.5902,1.594,1.594,1.594,1.594,1.6026,1.6029,1.6032,0,0,0,0,0,0,0,0,0,0,0,0,0,1.5759,1.5696,1.5816,1.5847,1.5851,1.59,1.5901,1.5902,1.594,1.594,1.594,1.594,1.6025,1.6029,1.6032,1.6057,0,0,1.6043,1.6045,0,0,0,0,0,0,0,0,1.5755,1.5763,1.5842,1.5845,1.585,1.591,1.589,1.5954,1.594,1.5906,1.594,1.594,1.5988,1.5995,1.6011,1.6061,1.6065,1.6044,1.6046,1.6047,1.6048,0,0,0,0,0,0,0,1.575,1.576,1.585,1.5843,1.5848,1.5858,1.5867,1.5902,1.5947,1.5909,1.5912,1.5922,1.599,1.6007,1.6013,1.6066,1.6044,1.6047,1.6049,1.605,1.6143,1.6143,0,0,0,0,0,0,1.574,1.5756,1.5847,1.5852,1.5801,1.586,1.5871,1.589,1.5947,1.5955,1.5922,1.5923,1.6001,1.6009,1.6016,1.605,1.6047,1.6051,1.6053,1.6142,1.6143,1.6143,0,0,0,0,0,0,1.5738,1.5748,1.5844,1.5805,1.5818,1.5863,1.5885,1.5892,1.5909,1.5956,1.5964,1.593,1.6001,1.6011,1.6047,1.6053,1.6052,1.6056,1.6142,1.6142,1.6143,1.6116,0,0,0,0,0,0,1.5734,1.5747,1.5756,1.5805,1.582,1.5872,1.5885,1.5894,1.5915,1.5918,1.5967,1.5975,1.6002,1.6041,1.605,1.6058,1.6059,1.6142,1.6142,1.6143,1.6116,1.6115,1.6114,0,0,0,0,0,1.5729,1.5745,1.5756,1.5767,1.5832,1.5872,1.5881,1.5911,1.5915,1.5925,1.5956,1.5973,1.6051,1.6045,1.6055,1.6064,1.6141,1.6142,1.6143,1.6117,1.6115,1.6114,0,0,0,0,0,0,1.5696,1.5752,1.5765,1.5797,1.5829,1.5878,1.5892,1.5909,1.5942,1.5943,1.598,1.5991,1.6024,1.6048,1.6039,1.6092,1.6098,1.6101,1.6075,1.6074,1.6073,1.6066,1.6062,0,0,0,0,0,1.5693,1.572,1.5768,1.5791,1.5807,1.5846,1.5865,1.5886,1.5922,1.5936,1.5969,1.6003,1.6036,1.6056,1.6088,1.612,1.6132,1.6132,1.6131,1.613,1.6132,1.6151,1.6152,1.6145,1.6145,1.6145,0,0,1.5685,1.5719,1.5734,1.5785,1.5813,1.5841,1.5858,1.5887,1.5908,1.594,1.5976,1.6001,1.6042,1.6076,1.6093,1.6097,1.6136,1.613,1.6129,1.6132,1.6152,1.6153,1.6153,1.6145,1.6145,1.6145,0,0,1.5687,1.5715,1.5738,1.5766,1.5807,1.5834,1.5839,1.5886,1.5904,1.594,1.5965,1.5992,1.6047,1.6075,1.6097,1.6111,1.6128,1.612,1.6115,1.6134,1.6134,1.6135,1.614,1.6142,1.6122,1.6122,1.6122,0,1.5673,1.5715,1.5748,1.5776,1.5798,1.5828,1.5852,1.5878,1.5928,1.5943,1.5947,1.6018,1.6047,1.6089,1.6092,1.6109,1.6117,1.6115,1.6131,1.6132,1.6134,1.6139,1.6141,1.6121,1.6121,1.6121,1.6121,0,1.5696,1.5726,1.574,1.5787,1.5811,1.5837,1.5874,1.5895,1.5914,1.5941,1.5978,1.6015,1.6056,1.6067,1.6086,1.6112,1.6113,1.6124,1.6131,1.6132,1.6138,1.6141,1.6119,1.612,1.612,1.612,0,0,1.5678,1.5744,1.5748,1.5771,1.582,1.5844,1.5872,1.5911,1.5928,1.5963,1.5988,1.6034,1.6044,1.6069,1.6092,1.6108,1.6118,1.6117,1.6119,1.6116,1.6149,1.614,1.6142,1.613,1.613,1.6131,1.6146,0,1.5686,1.5737,1.5767,1.5806,1.5834,1.5864,1.5889,1.5922,1.5948,1.5976,1.6005,1.6037,1.6049,1.6064,1.6081,1.6113,1.6125,1.6112,1.6154,1.6155,1.6142,1.6145,1.6136,1.6148,1.6148,1.6149,1.6149,0,1.5702,1.5735,1.5776,1.5823,1.5836,1.5857,1.5897,1.5923,1.5962,1.598,1.6008,1.6031,1.6063,1.6068,1.6113,1.6104,1.6123,1.6141,1.6143,1.6148,1.6152,1.615,1.6153,1.6155,1.6153,1.6152,1.6152,0,1.5685,1.574,1.5772,1.579,1.5845,1.586,1.5884,1.5923,1.5945,1.598,1.5995,1.6033,1.6054,1.6083,1.6117,1.6117,1.6159,1.6166,1.6175,1.6175,1.6182,1.6181,1.6188,1.6195,1.6195,1.6195,1.6195,0,1.569,1.5714,1.5765,1.5785,1.5813,1.5849,1.5876,1.5903,1.5937,1.5963,1.5992,1.6016,1.6059,1.6089,1.6115,1.6149,1.6158,1.6174,1.6181,1.6172,1.617,1.6184,1.6185,1.6195,1.6195,1.6195,1.6195,0,1.5675,1.571,1.5747,1.5797,1.581,1.5829,1.5872,1.5893,1.592,1.5953,1.5963,1.6007,1.6043,1.608,1.6129,1.6147,1.6181,1.619,1.6167,1.6171,1.6178,1.6177,1.6194,1.6199,1.6202,1.6202,1.6202,0,1.5677,1.5696,1.5748,1.5767,1.579,1.5821,1.5844,1.5881,1.5903,1.595,1.5965,1.6004,1.6037,1.6094,1.6131,1.617,1.618,1.6184,1.6186,1.6176,1.618,1.6179,1.6181,1.6182,1.6182,1.6182,1.6182,0,1.5675,1.5692,1.5723,1.5761,1.5788,1.5819,1.5852,1.5867,1.591,1.5935,1.5972,1.5998,1.6048,1.6087,1.613,1.6156,1.6176,1.6181,1.6185,1.6175,1.6161,1.6169,1.6164,1.618,1.618,1.618,1.618,1.618,1.5669,1.5687,1.5727,1.5762,1.579,1.5821,1.5843,1.5874,1.5905,1.5949,1.5969,1.6007,1.6047,1.6107,1.6133,1.6164,1.6169,1.6175,1.6176,1.6177,1.6175,1.6157,1.6172,1.6172,1.6172,1.6172,1.6172,0,1.5669,1.5696,1.5727,1.5772,1.58,1.5817,1.5855,1.5877,1.5909,1.5945,1.5977,1.6021,1.6059,1.6099,1.6139,1.6156,1.6167,1.6166,1.6165,1.6171,1.6168,1.616,1.6157,1.6157,1.6157,1.6157,1.6157,1.6157,1.5672,1.5705,1.5726,1.5774,1.5802,1.5839,1.5859,1.5888,1.5916,1.5964,1.5995,1.6021,1.6059,1.6102,1.6138,1.6149,1.6163,1.6159,1.6173,1.617,1.6171,1.6172,1.6165,1.6162,1.6162,1.6173,1.6173,1.6173]},{"header":{"parameterUnit":"m.s-1","parameterCategory":1,"la1":30.2991,"la2":30.254,"lo1":-89.0895,"lo2":-89.0444,"dy":0.0017,"dx":0.0017,"nx":28,"ny":28,"refTime":"2025-04-11T03:00:00:Z","depth":0,"parameterNumber":3,"parameterNumberName":"V-component_of_WINDS"},"data":[0,0,0,0,0,0,0,0,0,0,0,0,0,0,0,0,0,0,0,0,0,0,0,0,0,0,0,0,0,0,0,0,0,0,0,0,0,0,0,0,0,0,0,0,0,0,0,0,0,0,0,0,0,0,0,0,0,0,-2.0385,-2.0385,0,-2.0401,-2.0401,-2.0401,-2.0432,-2.0433,-2.0433,-2.0434,-2.0447,-2.0447,-2.0447,0,0,0,0,0,0,0,0,0,0,0,0,0,-2.0381,-2.0381,-2.0385,-2.0385,-2.0386,-2.0401,-2.0401,-2.0402,-2.0432,-2.0433,-2.0433,-2.0434,-2.0447,-2.0447,-2.0447,0,0,0,0,0,0,0,0,0,0,0,0,0,-2.0388,-2.0381,-2.0385,-2.0403,-2.0404,-2.0401,-2.0401,-2.0402,-2.0432,-2.0433,-2.0434,-2.0434,-2.0447,-2.0447,-2.0447,-2.0426,0,0,-2.0446,-2.0445,0,0,0,0,0,0,0,0,-2.0388,-2.0388,-2.04,-2.0402,-2.0403,-2.0416,-2.0405,-2.041,-2.0432,-2.0421,-2.0434,-2.0435,-2.0436,-2.0436,-2.0437,-2.0427,-2.0427,-2.0445,-2.0445,-2.0445,-2.0445,0,0,0,0,0,0,0,-2.0387,-2.0388,-2.0391,-2.04,-2.0402,-2.041,-2.0412,-2.0406,-2.0423,-2.0422,-2.0425,-2.0426,-2.0437,-2.0437,-2.0438,-2.0428,-2.0446,-2.0445,-2.0445,-2.0445,-2.0405,-2.0405,0,0,0,0,0,0,-2.0384,-2.0387,-2.0391,-2.0392,-2.0398,-2.0409,-2.0411,-2.0411,-2.0423,-2.0426,-2.0425,-2.0428,-2.0438,-2.0438,-2.0438,-2.0418,-2.0445,-2.0445,-2.0445,-2.0406,-2.0405,-2.0404,0,0,0,0,0,0,-2.0384,-2.0384,-2.039,-2.039,-2.0392,-2.0408,-2.0407,-2.0411,-2.0411,-2.0426,-2.0429,-2.0423,-2.0438,-2.0439,-2.043,-2.0419,-2.0445,-2.0444,-2.0407,-2.0406,-2.0405,-2.0376,0,0,0,0,0,0,-2.0384,-2.0384,-2.0376,-2.039,-2.0391,-2.0382,-2.0406,-2.041,-2.0411,-2.0414,-2.0424,-2.0427,-2.0439,-2.043,-2.043,-2.0419,-2.0444,-2.0408,-2.0407,-2.0405,-2.0378,-2.0374,-2.037,0,0,0,0,0,-2.0384,-2.0366,-2.0376,-2.0376,-2.0382,-2.0381,-2.0382,-2.0397,-2.041,-2.0403,-2.0413,-2.0426,-2.042,-2.0429,-2.0429,-2.0418,-2.0409,-2.0407,-2.0405,-2.0379,-2.0374,-2.037,0,0,0,0,0,0,-2.0349,-2.0368,-2.0379,-2.0365,-2.0372,-2.0386,-2.0377,-2.0391,-2.0393,-2.0395,-2.0414,-2.0416,-2.0405,-2.041,-2.042,-2.0401,-2.0417,-2.0415,-2.0398,-2.0393,-2.0389,-2.0388,-2.0444,0,0,0,0,0,-2.034,-2.0338,-2.0354,-2.0341,-2.0344,-2.036,-2.036,-2.0372,-2.0378,-2.0381,-2.039,-2.0395,-2.0395,-2.0394,-2.0394,-2.0379,-2.0383,-2.0371,-2.0367,-2.0364,-2.0362,-2.0357,-2.0353,-2.0398,-2.0398,-2.0398,0,0,-2.0321,-2.0331,-2.0328,-2.0334,-2.0341,-2.0339,-2.0362,-2.0358,-2.0357,-2.038,-2.0373,-2.038,-2.0388,-2.0376,-2.0372,-2.038,-2.0351,-2.0361,-2.0359,-2.0359,-2.0355,-2.0351,-2.0347,-2.0397,-2.0397,-2.0397,0,0,-2.0286,-2.0292,-2.0284,-2.029,-2.03,-2.0312,-2.031,-2.0323,-2.0329,-2.0323,-2.0342,-2.034,-2.0338,-2.0344,-2.0346,-2.0317,-2.0331,-2.0316,-2.0296,-2.0291,-2.0288,-2.0285,-2.0277,-2.0273,-2.0314,-2.0314,-2.0314,0,-2.026,-2.0258,-2.0277,-2.0273,-2.0276,-2.0299,-2.0291,-2.0296,-2.0305,-2.0306,-2.0316,-2.0317,-2.0323,-2.0315,-2.0309,-2.0309,-2.0308,-2.0315,-2.0287,-2.0284,-2.0282,-2.0274,-2.027,-2.0313,-2.0313,-2.0313,-2.0313,0,-2.0228,-2.0227,-2.0218,-2.0229,-2.0231,-2.0224,-2.0243,-2.0242,-2.0255,-2.0265,-2.026,-2.0269,-2.0273,-2.0272,-2.0282,-2.0266,-2.0272,-2.0284,-2.0301,-2.0276,-2.0269,-2.0266,-2.031,-2.0311,-2.0311,-2.0312,0,0,-2.017,-2.0193,-2.019,-2.0197,-2.0211,-2.021,-2.0206,-2.0211,-2.0212,-2.0218,-2.0215,-2.0215,-2.0228,-2.0231,-2.0242,-2.0238,-2.0217,-2.0251,-2.0252,-2.0246,-2.0203,-2.0194,-2.019,-2.0227,-2.0226,-2.0226,-2.0203,0,-2.0139,-2.0134,-2.0152,-2.0142,-2.0142,-2.0166,-2.0162,-2.0171,-2.0181,-2.0183,-2.0194,-2.0195,-2.021,-2.0213,-2.0209,-2.0221,-2.0209,-2.0222,-2.0225,-2.0225,-2.0224,-2.0186,-2.0177,-2.0155,-2.02,-2.0199,-2.0199,0,-2.0101,-2.0108,-2.0099,-2.0117,-2.0118,-2.0114,-2.0123,-2.0124,-2.0135,-2.0143,-2.0148,-2.0163,-2.0161,-2.0177,-2.0175,-2.0184,-2.0186,-2.0192,-2.0192,-2.0193,-2.0211,-2.0188,-2.0148,-2.0145,-2.0194,-2.0195,-2.0195,0,-2.0062,-2.0069,-2.0066,-2.007,-2.009,-2.0088,-2.0096,-2.0108,-2.0111,-2.0118,-2.0121,-2.0127,-2.013,-2.0135,-2.0151,-2.0161,-2.0148,-2.0165,-2.0156,-2.0155,-2.0152,-2.0152,-2.0112,-2.0151,-2.0151,-2.0151,-2.0151,0,-2.0026,-2.002,-2.0049,-2.0047,-2.0041,-2.0063,-2.0057,-2.0067,-2.0078,-2.0079,-2.0098,-2.0099,-2.012,-2.0123,-2.0135,-2.0133,-2.0134,-2.0141,-2.0145,-2.014,-2.0139,-2.0142,-2.0145,-2.015,-2.0151,-2.0151,-2.0151,0,-1.9982,-2.0001,-1.9999,-2.0019,-2.0024,-2.002,-2.0037,-2.0037,-2.0049,-2.005,-2.0052,-2.0071,-2.0076,-2.0093,-2.0101,-2.011,-2.0104,-2.011,-2.0101,-2.0103,-2.0094,-2.0095,-2.0055,-2.0052,-2.0091,-2.0091,-2.0091,0,-1.9958,-1.9955,-1.9976,-1.9979,-1.9987,-1.999,-1.9995,-2.0016,-2.002,-2.0034,-2.0032,-2.0039,-2.0045,-2.0051,-2.0066,-2.0073,-2.0081,-2.0066,-2.0082,-2.0078,-2.0083,-2.0083,-2.0084,-2.0063,-2.0063,-2.0062,-2.0062,0,-1.9915,-1.9926,-1.9932,-1.9942,-1.9947,-1.9956,-1.9966,-1.9966,-1.999,-1.9994,-2.0,-2.0005,-2.0015,-2.0022,-2.0032,-2.004,-2.0055,-2.0057,-2.0056,-2.0051,-2.0047,-2.0051,-2.0093,-2.0058,-2.0058,-2.0059,-2.0059,-2.0059,-1.9882,-1.9881,-1.9897,-1.9904,-1.9914,-1.9924,-1.9925,-1.9939,-1.9945,-1.9956,-1.9968,-1.9973,-1.9987,-2.0002,-2.001,-2.0014,-2.0022,-2.0019,-2.0019,-2.0018,-2.0017,-2.0046,-2.0016,-2.0016,-2.0016,-2.0016,-2.0016,0,-1.9842,-1.9854,-1.986,-1.9875,-1.9881,-1.9896,-1.9908,-1.9912,-1.9917,-1.9929,-1.9936,-1.9944,-1.9952,-1.9969,-1.9978,-1.9979,-1.9986,-1.998,-1.9981,-1.9983,-2.0008,-2.001,-1.9975,-1.9975,-1.9975,-1.9975,-1.9975,-1.9975,-1.9821,-1.9822,-1.9835,-1.9841,-1.9853,-1.986,-1.9866,-1.9875,-1.9885,-1.9894,-1.9901,-1.9913,-1.9927,-1.9938,-1.9946,-1.9951,-1.9954,-1.9947,-1.9954,-1.9977,-1.9981,-1.9985,-1.9986,-1.9947,-1.9947,-1.9929,-1.9928,-1.9928]}]]